Regional Weather Roundup
Issued by NWS

Home | Current Version | Previous Version | Graphics & Text | Print | Product List | Glossary On
Versions: 1 2 3 4 5 6 7 8 9 10 11 12 13 14 15 16 17 18 19 20 21 22 23 24 25 26 27
000
ASUS45 KSLC 050410
RWRUT

UTAH REGIONAL WEATHER ROUNDUP
NATIONAL WEATHER SERVICE SALT LAKE CITY UT
900 PM MST SUN DEC 04 2016

UTZ001>011-023>025-050500-

NORTHERN UTAH

CITY           SKY/WX    TMP DP  RH WIND       PRES   REMARKS
BRIGHAM CITY     N/A     41  18  40 CALM      29.80F
HILL AFB       CLOUDY    39  20  46 S14       29.81F WCI  31
LOGAN          CLOUDY   N/A N/A N/A SW15G28   29.76F
OGDEN          CLOUDY    39  22  50 S6        29.81F WCI  35
SALT LAKE CITY CLOUDY    41  21  44 E5        29.82F
TOOELE VALLEY  CLOUDY    43  25  49 SW10      29.83R
WENDOVER       CLOUDY    36  19  51 E7        29.83F WCI  30
HEBER CITY     CLOUDY    32  25  74 CALM      29.83F
WEST JORDAN    CLOUDY    43  25  50 S20G28    29.83F

$$

UTZ011>015-024>027-050500-

CENTRAL/NORTHEAST UTAH

CITY           SKY/WX    TMP DP  RH WIND       PRES   REMARKS
PROVO AIRPORT  CLOUDY    32  27  81 CALM      29.88F
MOAB/CANYONLAN PTCLDY    27  15  61 CALM      29.99F
DELTA          CLOUDY    34  19  55 NE3       29.89F
PRICE          MOCLDY    24  14  65 N8        29.98F WCI  15
RICHFIELD      CLEAR     27  23  86 W2        29.95F
ROOSEVELT      CLOUDY    21  14  73 CALM      29.93F
VERNAL         CLOUDY    22  15  75 NW5       29.91F WCI  16

$$

UTZ013>016-019>022-027-050500-

SOUTHERN UTAH

CITY           SKY/WX    TMP DP  RH WIND       PRES   REMARKS
BRYCE CANYON   CLEAR     13   9  84 W5        30.03F WCI   5
CEDAR CITY     PTCLDY    35  16  45 S12       29.97F WCI  27
MILFORD        PTCLDY    38  15  39 S13       29.92F WCI  30
ST GEORGE      CLOUDY    41  18  38 CALM      30.02F
HANKSVILLE     PTCLDY    30  16  55 CALM      30.02F
KANAB          CLEAR     28  16  59 N6        30.06  WCI  22
BLANDING       CLEAR     26  12  55 N5        30.12F WCI  20

$$

REGIONAL REPORTS     COLORADO/ARIZONA

CITY           SKY/WX    TMP DP  RH WIND       PRES   REMARKS
CRAIG, CO      CLOUDY    26  16  65 VRB3      29.90F
GRAND JUNCTION CLOUDY    26  19  74 E6        30.01F WCI  19
RIFLE, CO      CLOUDY    31  20  63 CALM      30.01F
MONTROSE, CO   CLOUDY    25  18  74 S5        30.03F WCI  19
CORTEZ, CO     CLOUDY    22  18  85 SE5       30.08S WCI  16
COLORADO CITY    N/A     28  21  74 S3        30.05S
PAGE, AZ       PTCLDY    37  14  38 CALM      30.01F HAZE
GRAND CANYON   CLEAR     24  19  81 CALM      30.08F
KINGMAN, AZ    CLEAR     40  15  36 S7        30.01F
FLAGSTAFF, AZ  CLEAR     31  16  54 SW5       30.10F WCI  26

$$

REGIONAL REPORTS    NEVADA/IDAHO/WYOMING

CITY           SKY/WX    TMP DP  RH WIND       PRES   REMARKS
LAS VEGAS, NV  MOCLDY    49  14  24 CALM      29.96F
ELY, NY        MOCLDY    28  19  69 S6        29.95F WCI  22
ELKO, NV       CLOUDY    37  24  59 NE3       29.87S
POCATELLO, ID  LGT RAIN  35  33  92 SW21      29.76F WCI  24
BURLEY, ID     LGT RAIN  36  33  89 W23G30    29.79R WCI  24
FORT BRIDGER,  MOCLDY    35  26  69 W18G25    29.83S WCI  24
EVANSTON, WY   CLOUDY    34  24  67 W26G38    29.82F WCI  21
ROCK SPRINGS,  CLOUDY    34  22  61 SW26G36   29.76F WCI  21
KEMMERER, WY     N/A     32  27  80 SW24G30   29.77F WCI  19

$$




USA.gov is the U.S. government's official web portal to all federal, state and local government web resources and services.